Location: Moscow
(55.7500°N, 37.5830°E)
Time: 14:23:46
(UTC+03:00)

Vanguard 1 - Pass Details

Date: 03 December 2021
Orbit: 652 x 3830 km, 34.2° (Epoch: 25 January)

Event Time Altitude Azimuth Distance (km) Brightness Sun altitude
Exits shadow 03:44:03 37° 195° (SSW) 4,536 13.0 -39.6°
Maximum altitude 03:45:06 37° 190° (S) 4,471 13.0 -39.5°
Drops below altitude 10° 03:59:16 10° 131° (SE) 5,150 14.0 -37.6°
Sets 04:02:57 0° 123° (ESE) 5,765 14.5 -37.1°
